sat.trackr.live / text

‹ back to catalog

STARLINK-37275

NORAD 68725 · 2026-081AC

PAYLOAD ACTIVE UNKNOWN

§ Identity

Operator
Country
US
Launch date
2026-04-14
Launch site
AFETR
Launch vehicle
Mass (kg)
RCS (m²)

Purposes: comms

External: N2YO · Heavens-Above · Gunter

§ Orbital elements

Epoch: 2026-05-25T03:09:03.596832Z

Period
92.94 min
Inclination
53.1585°
Eccentricity
0.0000909
Mean motion
15.49341894 rev/d
Perigee alt
418.0 km
Apogee alt
419.3 km
Semi-major
6,796.8 km
B*
5.9565e-4
RAAN
39.9502°
Arg perigee
95.6224°
Mean anomaly
264.4888°
Rev number
643

§ Raw data

STARLINK-372751 68725U 26081AC  26145.13129163  .00032857  00000+0  59565-3 0  99962 68725  53.1585  39.9502 0000909  95.6224 264.4888 15.49341894  6432

JSON: /api/v1/satellites/68725 · /tle

For live sub-satellite position, see the globe view (requires WebGL).

§ Visibility from observer

Set your observer location to see the next 7 days of passes ≥ 10°. The values pass through the URL so the page stays shareable.

No JS? Fill the form by hand. The geolocation button needs JavaScript.